星链-1705 (STARLINK-1705 )

导读

STARLINK-1705是美国SpaceX星链星座中的一颗卫星,于2020年10月6日发射升空,属于星链互联网卫星组网的组成部分,运行在近地轨道,旨在为全球提供高速低延迟的宽带互联网服务。作为星链大规模部署中的一员,它承担着用户数据中继传输的任务,支撑星座全球覆盖的通信能力。

基本信息
目录编号:
46579
目录名称:
STARLINK-1705
国际标识:
2020-070AZ
轨道中心:
EARTH
卫星名称:
星链-1705
卫星全名:
星链-1705 (STARLINK-1705 )
卫星状态:
已陨落 最后检测时间 2026-01-23
发射日期:
2020-10-06 UTC
国别 :
美国 (US)
星等 :
--
轨道信息
数据来源 国际轨道数据
星历时间: 2026-01-24T03:04:40+0800
轨道信息已过期146天
半长轴: 6532.239km
偏心率: 0.0003649
轨道倾角: 53.020°
近地点辐角 223.149°
升交点赤经 294.258°
平近点角 136.928°
近地点: 151.718km
远地点: 156.486km
周期: 87.569分钟
每日圈数: 16.444085
详细信息
固有亮度:
5
最大亮度:
2.5
卫星平台:
Starlink V1.0
覆盖范围:
全球
运营商:
太空探索技术公司
运营商所在国:
美国
制造商(研发单位):
太空探索技术公司
制造商所在国:
美国
使用方式:
暂无
卫星简介
星链(Starlink)计划是由太空探索技术公司(SpaceX)提出的一个巨型低轨卫星互联网星座项目,计划在2019年至2024年间在太空搭建由约1.2万颗卫星组成的“星链”网络,其中1584颗将部署在地球上空550千米处的近地轨道,并从2020年开始工作。该卫星仍在工作。